Location: *
(39.6167°S, 171.5333°W)
Time: 04:51:39
(UTC+00:00)

Cosmos 2263 Rocket - Pass Details

Date: 13 May 2021
Orbit: 822 x 849 km, 71.0° (Epoch: 16 June)

Event Time Altitude Azimuth Distance (km) Brightness Sun altitude
Rises 17:06:05 0° 341° (NNW) 3,404 5.3 -14.8°
Reaches altitude 10° 17:08:31 10° 341° (NNW) 2,476 4.6 -14.3°
Maximum altitude 17:14:13 84° 68° (ENE) 866 2.3 -13.3°
Drops below altitude 10° 17:19:58 10° 156° (SSE) 2,496 4.8 -12.2°
Sets 17:22:26 0° 156° (SSE) 3,434 5.5 -11.7°
